Find Starlink 32239

NORAD ID: 61892 Int'l Des: 2024-204 Owner: SPXS Country: US Constellation: starlink operational
LEOCIRCULAR

当前视图

正在加载3D地球...

About Starlink 32239

Starlink 32239 (NORAD 61892) is a starlink constellation satellite (v2 mini) launched Nov 9, 2024 by SPXS of US. It operates in LEO, CIRCULAR orbit with a mass of 730.00 kg.

关于 Starlink 32239

正在加载描述...

即将过境

Passes for default location (London). Set your location on the main map for personalized predictions.

高度历史

Loading altitude history...

两行轨道根数

1 61892U 24204U 26168.85938218 .00022474 00000-0 67541-3 0 9990
2 61892 53.1621 21.8256 0000746 101.7250 258.3836 15.34347223 90438
Epoch: Jun 17, 2026 • Age: 13 hours

当前状态

高度 468.0 km
速度 7.64 km/s
星下点 49.56°N, 87.68°E
发射日期 Nov 9, 2024
运行时间 1.6 years
类型 internet

技术详情

分类 Payload
质量 730.00 kg
干质量 700.00 kg
总质量 730.00 kg
长度 0.30 m
直径 4.10 m
跨度 29.00 m
形状 Box + pan
制造商 SPXS
平台类型 Starlink V2M
阶段状态 In Orbit
所有者/国家 SPXS/US

Most Searched